Regional Weather Roundup
Issued by NWS

Home | Current Version | Previous Version | Graphics & Text | Print | Product List | Glossary On
Versions: 1 2 3 4 5 6 7 8 9 10 11 12 13 14 15 16 17 18 19 20 21 22 23 24 25 26 27 28 29 30 31 32 33 34 35 36 37 38 39 40 41 42 43 44 45 46 47 48 49 50
000
ASUS43 KMPX 020110
RWRMN
WEATHER ROUNDUP FOR MINNESOTA
NATIONAL WEATHER SERVICE TWIN CITIES/CHANHASSEN MN
800 PM CDT SUN MAY 01 2016


NOTE: "FAIR" INDICATES FEW OR NO CLOUDS BELOW 12,000 FEET WITH NO
SIGNIFICANT WEATHER AND/OR OBSTRUCTIONS TO VISIBILITY. N/A MEANS
CURRENT SKY AND/OR WEATHER CONDITIONS ARE NOT AVAILABLE.

MNZ060>063-068>070-020200-
   Twin Cities Metro

CITY           SKY/WX    TMP DP  RH WIND       PRES   REMARKS
TWIN CITIES    PTCLDY    60  32  34 NE7       30.10R
ST PAUL        CLEAR     59  32  36 N6        30.10S
CRYSTAL        PTCLDY    59  33  37 N6        30.10R
BLAINE         PTCLDY    57  34  41 N7        30.11R
EDEN PRAIRIE   CLEAR     59  31  34 NE6       30.09S
SOUTH ST PAUL  PTCLDY    59  32  36 N5        30.10R
LAKE ELMO      FAIR      57  34  41 N3        30.10S
$$
MNZ001>005-007-008-013>017-022>024-027-028-020200-
   Northwest Minnesota

CITY           SKY/WX    TMP DP  RH WIND       PRES   REMARKS
BEMIDJI        CLEAR     57  28  33 N5        30.14S
HALLOCK        CLEAR     64  19  17 CALM      30.12F
ROSEAU         CLEAR     57  30  35 E5        30.15S
WARROAD        CLEAR     55  30  38 E3        30.15F
THIEF RVR FALL CLEAR     61  25  25 NE8       30.15S
CROOKSTON      CLEAR     63  28  27 CALM      30.14S
FOSSTON        CLEAR     61  30  31 CALM      30.14F
DETROIT LAKES  CLEAR     59  30  33 N8        30.14S
MOORHEAD       CLEAR     63  27  25 N5        30.14S
PARK RAPIDS    CLEAR     61  27  27 E5        30.12F
MAHNOMEN       FAIR      58  30  34 E6        30.14S
$$
MNZ006-009>011-018-025>026-020200-
   North Central Minnesota

CITY           SKY/WX    TMP DP  RH WIND       PRES   REMARKS
BAUDETTE       CLEAR     54  28  36 NW6       30.14F
FLAG ISLAND    CLEAR     48  37  66 S6        30.13S
INTL FALLS     CLEAR     56  27  32 E3        30.14S
WASKISH        CLEAR     55  36  47 CALM      30.14S
BIG FORK       CLEAR     57  28  33 N3        30.13S
LONGVILLE      CLEAR     57  28  33 NW3       30.13S
GRAND RAPIDS   CLEAR     57  27  30 SW5       30.14S
CRANE LAKE     CLEAR     54  30  40 CALM      30.15F
ORR            CLEAR     55  28  35 CALM      30.11S
COOK           CLEAR     57  28  33 CALM      30.14R
WALKER         FAIR      56  30  36 CALM      30.13S
$$
MNZ012-019>021-037-020200-
   Northeast Minnesota

CITY           SKY/WX    TMP DP  RH WIND       PRES   REMARKS
DULUTH         PTCLDY    48  30  49 E7        30.16S
ELY            CLEAR     55  27  33 CALM      30.13S
HIBBING        PTCLDY    54  31  41 SE8       30.12S
EVELETH        CLEAR    N/A N/A N/A SE8       30.15R
DULUTH HARBOR  CLEAR     39  36  87 CALM      30.18F
TWO HARBORS    CLEAR     48  36  61 E5        30.15S
SILVER BAY     CLEAR     46  32  57 CALM      30.16R
GRAND MARAIS     N/A     41  34  76 CALM      30.17F
G MARAIS ARPRT CLEAR     45  28  53 SE3       30.17S
$$
MNZ029>031-032-039>041-046>048-054>057-064-020200-
   West Central Minnesota

CITY           SKY/WX    TMP DP  RH WIND       PRES   REMARKS
FERGUS FALLS   CLEAR     61  30  31 CALM      30.11S
WHEATON        CLEAR     61  34  36 NW6       30.16S
MORRIS         CLEAR     61  30  31 N7        30.13S
ALEXANDRIA     CLEAR     57  32  38 N3        30.14S
ELBOW LAKE     FAIR      59  33  37 N5        30.14S
WADENA         CLEAR     57  30  35 NE5       30.13S
GLENWOOD       CLEAR     57  28  33 NE7       30.14S
APPLETON       CLEAR     61  28  29 N6        30.13S
BENSON         CLEAR     59  25  27 E5        30.13S
ORTONVILLE     CLEAR     61  30  31 NE6       30.13F
MADISON        CLEAR     57  32  38 N9        30.13S
WILLMAR        FAIR      57  32  38 NE6       30.14S
$$
MNZ033>034-036-042>043-049>051-058-059-020200-
   Central Minnesota

CITY           SKY/WX    TMP DP  RH WIND       PRES   REMARKS
ST CLOUD       CLEAR     58  31  35 CALM      30.12S
SAUK CENTRE    FAIR      56  32  41 NE5       30.13S
PAYNESVILLE    CLEAR     58  29  34 N7        30.14R
AITKIN         CLEAR     59  27  29 E5        30.12S
PINE RIVER     CLEAR     57  34  41 N5        30.16S
BRAINERD       CLEAR     58  30  34 CALM      30.13S
STAPLES        CLEAR     57  27  30 N7        30.13S
LONG PRAIRIE   FAIR      55  30  38 CALM      30.14S
LITTLE FALLS   CLEAR     55  32  41 CALM      30.14S
LITCHFIELD     CLEAR     57  34  41 NE6       30.13S
BUFFALO        CLEAR     58  33  38 N3        30.13R
MAPLE LAKE     CLEAR     58  35  42 N5        30.13S
HUTCHINSON       N/A     57  37  47 NE7       30.13S
$$
MNZ037-044-045-052-053-020200-
   East Central Minnesota

CITY           SKY/WX    TMP DP  RH WIND       PRES   REMARKS
PRINCETON        N/A     57  34  41 N7        30.13R
MORA           CLEAR     54  30  40 CALM      30.15S
CAMBRIDGE      CLEAR     61  39  44 N3        30.11R
RUSH CITY      PTCLDY    56  37  47 N6        30.12R
MOOSE LAKE     CLEAR     54  32  43 NE3       30.13S
HINCKLEY       FAIR      55  34  44 NE7       30.14R
CLOQUET        CLEAR     48  32  53 E3        30.16S
MCGREGOR       CLEAR     54  34  47 SE7       30.14S
$$
MNZ071>073-080-081-089-090-097-098-020200-
   Southwest Minnesota

CITY           SKY/WX    TMP DP  RH WIND       PRES   REMARKS
MONTEVIDEO     CLEAR     57  30  35 NE7       30.15R
GRANITE FALLS  CLEAR     59  33  37 N7        30.14S
CANBY          CLEAR     59  35  40 NE6       30.14S
MARSHALL       CLEAR     57  31  37 NE10      30.13S
REDWOOD FALLS  CLEAR     59  30  33 N6        30.11F
OLIVIA         CLEAR     55  32  41 N7        30.12S
PIPESTONE      CLEAR     55  32  41 N8        30.13S
WINDOM         CLEAR     54  37  54 CALM      30.12S
WORTHINGTON    CLEAR     53  39  59 N6        30.13R
JACKSON        CLEAR     52  39  62 NE7       30.12S
TRACY          CLEAR     56  37  48 N9        30.13R
SLAYTON        CLEAR     54  35  49 N6        30.13S
$$
MNZ065>067-074>077-082>085-091>093-020200-
   South Central Minnesota

CITY           SKY/WX    TMP DP  RH WIND       PRES   REMARKS
MANKATO        CLEAR     57  34  41 N7        30.10S
NEW ULM        CLEAR     55  36  47 N3        30.12R
ST JAMES       PTCLDY    52  36  54 N8        30.12S
FAIRMONT       CLOUDY    55  37  50 N9        30.10S
GLENCOE        PTCLDY    58  39  48 N3        30.11S
FARIBAULT      CLOUDY    61  36  39 VRB2      30.10R
OWATONNA       CLOUDY    57  36  44 N6        30.09R
WASECA         CLOUDY    55  39  54 N8        30.10S
ALBERT LEA     CLOUDY    55  41  58 S3        30.09R
$$
MNZ078>079-086>088-094>096-020200-
   Southeast Minnesota

CITY           SKY/WX    TMP DP  RH WIND       PRES   REMARKS
ROCHESTER      CLOUDY    51  44  77 SW7       30.09S
RED WING       PTCLDY    59  36  41 CALM      30.07S
STANTON        CLOUDY    60  35  38 N8        30.08R
DODGE CENTER   CLOUDY    52  43  71 S7        30.09S
WINONA         CLOUDY    55  37  50 CALM      30.08S
AUSTIN         CLOUDY    52  43  71 SE3       30.09S
PRESTON        CLOUDY    49  42  78 S5        30.09S
$$
ABBREVIATIONS USED IN REMARKS
   TC - TEMPERATURES IN CELSIUS
  WCI - WIND CHILL INDEX
   HX - HEAT INDEX
  VSB - VISIBILITY
$$




USA.gov is the U.S. government's official web portal to all federal, state and local government web resources and services.